SCP
0 0 0 0 0 0 0 0 0 0 0 0 0 0 0 0 0 0 0 0 0 0 0 0 0 0 0 0 0 0 0 0 0 0 0 0 0 0 0 0 0 0 0
0 0 0 0 0 0 0 0 0 0 0 0 0 0 0 0 0 0 0 0 0 0 0 0 0 0 0 0 0 0 0 0 0 0 0 0 0 0 0 0 0 0 0
0 0 0 0 0 0 0 0 0 0 0 0 0 0 0 0 0 0 0 0 0 0 0 0 0 0 0 0 0 0 0 0 0 0 0 0 0 0 0 0 0 0 0
0 0 0 0 0 0 0 0 0 0 0 0 0 0 0 0 0 0 0 0 0 0 0 0 0 0 0 0 0 0 0 0 0 0 0 0 0 0 0 0 0 0 0
0 0 0 0 0 0 0 0 0 0 0 0 0 0 0 0 0 0 0 0 0 0 0 0 0 0 0 0 0 0 0 0 0 -0 0 0 0 0 0 0 0 0 0
0 0 0 0 0 0 0 0 0 0 0 0 0 0 0 0 0 0 0 0 0 0 0 0 0 0 0 0 -0 0 0 0 0 0 0 0 0 0 0 0 0 0 0
0 0 0 0 0 0 0 0 0 0 0 0 0 0 0 0 0 0 0 0 0 0 0 0 0 0 0 -0 -0 -0 -0 0 0 0 0 0 0 0 0 0 0 0 0
0 0 0 0 0 0 0 0 0 0 0 0 0 0 0 0 0 0 0 0 0 0 0 -0 -0 -0 -0 0 -0 0 -0 0 0 0 0 0 0 0 0 0 0 0 0
0 0 0 0 0 0 0 0 0 0 0 0 0 0 0 0 0 0 0 0 0 0 0 0 -0 -0 0 0 0 0 0 0 0 0 0 0 0 0 0 0 0 0 0
0 0 0 0 0 0 0 0 0 0 0 0 0 0 0 0 0 0 0 0 0 0 0 0 0 -0 -0 -0 0 0 0 0 0 0 0 0 0 0 0 0 0 0 0
0 0 0 0 0 0 0 0 0 0 0 0 0 0 0 0 0 0 0 0 0 0 0 0 0 -0 -0 -0 0 0 0 0 0 0 0 0 0 0 0 0 0 0 0
0 0 0 0 0 0 0 0 0 0 0 0 0 0 0 0 0 0 0 0 0 0 0 0 0 -0 -0 0 0 0 0 0 0 0 0 0 0 0 0 0 0 0 0
0 0 0 0 0 0 0 0 0 0 0 0 0 0 0 0 0 0 0 0 0 0 0 0 0 0 0 0 0 0 0 0 0 0 0 0 0 0 0 0 0 0 0
0 0 0 0 0 0 0 0 0 0 0 0 0 0 0 0 0 0 0 0 0 0 0 0 0 0 -0 -0 0 0 0 0 0 -0 0 0 0 0 0 0 0 0 0
0 0 0 0 0 0 0 0 0 0 0 0 0 0 0 0 0 0 0 0 0 0 0 0 0 0 0 0 0 0 0 0 -0 0 0 0 0 0 0 0 0 0 0
0 0 0 0 0 0 0 0 0 0 0 0 0 0 0 0 0 0 0 0 0 0 0 0 0 0 0 0 0 0 0 0 -0 -0 -0 0 0 0 0 0 0 0 0
0 0 0 0 0 0 0 0 0 0 0 0 0 0 0 0 0 0 0 0 0 0 -0 0 0 0 0 0 0 0 0 0 0 0 0 0 0 0 0 0 0 0 -0
0 0 0 0 0 0 0 0 0 0 0 0 0 0 0 0 0 0 0 0 0 0 -0 -0 -0 -0 -0 -0 -0 -0 -0 -0 -0 -0 -0 -0 0 0 0 0 -0 -0 -0
0 0 0 0 0 0 0 0 0 0 0 0 0 0 0 0 0 0 0 0 0 -0 -0 -0 -0 -0 -0 -0 -0 -0 -0 -0 -0 -0 -0 -0 -0 0 -0 -0 -0 -0 -0
0 0 0 0 0 0 0 0 0 0 0 0 0 0 0 0 0 0 0 0 0 0 0 0 -0 -0 -0 -0 -0 -0 -0 -0 -0 -0 -0 0 0 -0 -0 0 0 0 0
0 0 0 0 0 0 0 0 0 0 0 0 0 0 0 0 0 0 0 0 0 0 0 0 0 0 -0 -0 -0 -0 -0 -0 0 -0 -0 0 0 0 0 0 0 0 0
0 0 0 0 0 0 0 0 0 0 0 0 0 0 0 0 0 0 0 0 0 0 0 0 0 0 0 0 0 0 0 0 0 0 0 0 0 0 0 0 0 0 0
0 0 0 0 0 0 0 0 0 0 0 0 0 0 0 0 0 0 0 0 0 0 0 0 0 0 0 0 0 0 0 0 0 0 0 0 0 0 0 0 0 0 0
0 0 0 0 0 0 0 0 0 0 0 0 0 0 0 0 0 0 0 0 0 0 0 0 0 0 0 0 0 0 0 0 0 0 0 0 0 0 0 0 0 0 0
0 0 0 0 0 0 0 0 0 0 0 0 0 0 0 0 0 0 0 0 0 0 0 0 0 0 0 0 0 0 0 0 0 0 0 0 0 0 0 0 0 0 0
0 0 0 0 0 0 0 0 0 0 0 0 0 0 0 0 0 0 0 0 0 0 0 0 0 0 0 0 0 0 0 0 0 0 0 0 0 0 0 0 0 0 0
Wind_Speed_500mb
48 49 52 56 59 61 65 67 69 70 70 70 70 72 70 71 71 74 76 76 81 84 84 84 91 81 86 90 88 78 77 66 75 80 77 78 67 69 54 68 82 87 91
45 46 49 53 56 60 63 64 66 67 67 69 72 76 77 78 77 80 82 80 81 81 81 83 82 92 80 84 81 81 68 78 71 62 73 66 51 53 45 60 77 90 98
41 43 45 49 54 58 60 63 62 65 67 72 76 77 77 78 78 80 80 79 78 75 76 74 79 75 85 81 82 79 75 72 57 56 76 78 61 51 46 57 78 88 93
36 39 42 46 51 55 57 57 58 62 70 74 76 79 83 85 85 79 80 86 88 81 75 71 68 76 73 79 79 77 73 68 80 52 51 64 67 60 62 86 88 99 109
33 35 37 41 45 47 50 53 57 63 69 73 81 88 93 93 87 85 84 80 74 72 68 73 72 68 78 70 77 68 67 67 72 60 52 65 74 87 97 88 106 116 114
30 32 34 36 40 44 50 52 56 62 67 74 84 92 98 95 77 85 77 57 48 48 54 60 60 69 67 75 78 75 74 52 57 58 68 70 84 99 106 108 122 135 113
26 28 30 31 34 41 46 49 55 60 64 74 83 91 99 97 81 90 67 45 44 44 43 47 44 55 61 68 71 72 70 51 52 72 55 47 86 102 116 118 123 111 126
21 23 25 26 29 37 42 46 48 51 62 74 82 91 98 96 84 92 66 52 54 55 53 34 32 43 53 61 64 61 62 60 28 42 46 36 68 111 120 126 122 112 115
18 19 20 20 23 30 35 37 39 47 54 61 72 85 99 101 87 86 76 69 75 80 71 8 26 34 43 47 48 45 42 39 41 29 31 46 84 103 113 127 110 128 112
19 16 16 16 18 23 25 27 36 40 48 60 70 82 90 98 103 83 79 75 86 103 106 34 30 30 37 43 43 43 43 48 48 40 42 57 71 91 89 99 120 133 128
21 16 14 14 13 16 17 18 29 32 39 52 62 73 84 92 98 91 75 71 79 97 113 94 45 27 28 29 34 37 37 48 56 52 69 74 81 78 74 89 95 112 107
25 20 15 15 9 10 10 13 21 26 37 50 59 69 78 85 89 90 88 69 62 73 86 91 85 66 60 48 53 59 67 64 69 79 86 89 92 88 82 87 88 88 69
32 29 20 18 11 10 8 9 15 21 32 45 56 65 72 78 83 81 79 87 69 65 57 63 70 57 67 84 84 90 88 85 90 95 96 92 84 81 80 74 67 68 65
42 37 28 22 17 13 9 6 10 16 27 38 48 56 63 71 78 78 75 73 80 85 72 60 51 48 56 71 76 69 68 75 82 94 97 96 89 88 88 80 77 63 66
50 46 39 28 23 18 13 11 6 12 22 30 38 45 52 61 66 64 67 68 70 72 79 84 83 76 68 63 64 66 75 83 89 90 89 83 79 77 76 65 57 66 75
60 56 49 38 31 25 19 17 13 5 11 17 23 29 35 41 46 53 56 59 61 65 74 78 78 80 85 83 82 82 81 81 80 78 76 74 75 72 66 62 66 70 68
66 64 56 48 40 34 29 23 21 12 6 5 10 15 22 28 32 41 46 47 54 58 71 70 70 67 66 66 67 68 71 68 66 67 68 66 63 61 60 63 62 58 62
65 69 63 56 48 41 38 31 28 23 14 10 5 3 9 14 20 27 32 30 42 50 58 61 60 60 59 58 57 57 56 53 49 51 52 54 55 58 60 59 57 58 60
62 72 69 63 57 49 43 40 35 32 26 21 15 10 4 3 8 14 18 21 30 38 41 47 49 49 48 49 51 50 48 47 46 46 46 45 46 47 51 51 50 48 48
64 70 72 68 63 59 52 46 41 37 33 28 23 20 15 9 2 5 9 14 18 24 28 32 37 40 41 41 40 38 39 39 40 41 44 44 45 43 47 49 47 48 45
67 71 74 74 71 64 59 51 44 39 34 30 26 27 24 19 13 6 1 5 10 12 14 18 22 25 29 31 31 31 30 32 32 32 34 36 37 38 37 37 38 36 35
72 72 76 81 76 70 65 58 48 41 37 33 28 29 28 25 21 16 12 8 4 4 9 10 10 13 16 19 20 21 22 21 22 23 25 29 32 33 34 34 35 34 32
72 73 76 82 76 71 68 65 55 45 40 35 33 32 28 25 24 22 17 13 11 10 9 11 14 14 13 10 12 16 13 14 17 18 20 23 26 28 28 29 30 31 30
67 71 78 78 76 72 73 71 62 49 43 39 38 35 32 28 26 24 22 18 15 15 15 16 15 16 16 16 16 16 16 17 16 18 18 19 24 28 29 30 30 30 28
62 65 70 72 72 68 71 71 67 59 51 45 42 38 33 31 29 27 24 21 20 18 16 16 19 20 22 21 20 18 18 17 19 21 23 25 25 28 31 32 33 33 29
55 59 61 64 61 59 64 66 67 64 57 51 46 42 39 36 32 31 29 27 24 21 21 21 21 23 26 29 29 27 24 23 21 20 21 23 25 29 31 30 30 31 32
Wind_Direction_500mb
314 320 324 329 331 334 335 336 337 336 334 329 329 327 323 318 319 310 301 295 288 282 273 265 254 257 249 249 247 246 242 244 244 254 266 266 257 253 255 243 220 211 208
313 321 327 332 334 337 339 342 341 340 338 339 338 335 331 326 318 306 306 301 292 286 277 271 262 247 251 246 242 239 239 241 244 250 252 257 253 243 248 222 213 206 207
313 321 330 335 338 342 346 347 345 344 346 347 345 338 335 332 324 321 315 307 298 288 280 271 261 254 240 245 241 241 240 235 235 242 248 249 235 241 219 204 201 200 189
313 324 333 339 342 348 353 351 352 352 354 356 352 349 347 339 331 324 322 313 298 292 282 274 264 250 244 244 237 235 240 237 235 248 244 241 224 200 199 179 154 161 150
313 325 335 341 347 354 357 359 1 2 5 5 360 357 351 344 337 336 326 314 302 294 284 276 269 252 237 231 232 229 236 234 235 237 238 213 185 172 168 156 159 146 142
311 325 336 343 352 2 1 4 7 9 10 8 3 2 355 348 345 338 330 319 323 302 291 283 261 251 235 228 230 231 229 224 223 221 203 197 188 175 170 167 159 152 133
308 324 333 341 358 6 6 10 14 12 13 14 10 7 3 360 357 347 340 342 349 345 320 285 267 234 229 220 220 223 228 231 224 228 223 223 195 177 174 168 157 152 154
303 319 327 340 0 12 10 17 24 21 20 20 17 13 9 9 7 358 357 6 10 7 356 295 247 215 213 213 214 217 223 223 221 214 236 238 226 187 182 176 168 159 146
293 307 319 333 4 16 16 28 31 19 22 25 21 16 15 15 13 6 9 25 26 25 17 337 166 187 196 188 198 206 211 207 228 238 232 218 193 181 175 174 164 159 141
281 295 310 328 5 20 18 29 25 16 25 25 23 19 15 18 19 11 15 30 38 38 33 79 122 144 163 179 186 193 199 209 219 208 191 177 181 175 175 174 169 159 152
271 277 296 312 355 11 4 11 15 10 22 26 22 26 27 21 23 22 22 34 45 52 55 61 71 117 133 152 176 191 197 184 173 187 166 164 166 164 162 163 161 165 160
261 261 272 292 319 340 340 346 359 4 15 26 26 31 33 33 28 26 31 39 49 59 69 77 80 95 115 142 142 156 166 176 171 163 160 157 161 163 164 165 165 167 164
256 254 255 274 275 297 310 328 356 7 20 28 30 31 33 37 37 33 35 41 52 62 74 92 108 122 129 122 129 140 147 148 149 147 145 145 151 154 156 159 162 167 164
252 247 243 256 256 267 278 277 350 13 29 30 33 35 36 37 40 38 37 46 51 61 69 75 84 98 112 123 127 134 137 140 141 136 134 136 142 148 153 156 154 151 149
247 244 240 242 245 248 253 237 275 15 31 34 33 34 37 41 42 39 40 45 56 62 71 77 81 87 93 100 108 116 122 128 131 133 133 131 130 132 129 131 136 146 144
245 241 240 236 238 237 238 234 234 333 15 37 36 38 42 47 48 49 49 55 56 60 66 69 76 84 91 98 104 110 114 115 117 120 123 126 128 128 128 135 143 150 147
244 240 237 232 233 234 234 229 230 254 286 2 35 39 44 49 51 56 55 54 62 65 67 72 76 78 86 94 100 106 111 114 120 124 126 129 133 133 135 136 141 142 138
243 239 237 235 232 233 235 232 232 237 249 268 265 20 53 52 59 58 58 57 65 65 74 76 77 83 86 87 91 94 98 102 108 113 119 124 128 130 130 133 136 139 139
241 238 235 233 231 232 234 237 236 237 241 250 249 237 242 88 70 73 73 61 63 75 78 83 85 86 86 92 99 103 106 111 115 119 119 121 125 133 135 136 138 141 143
244 240 238 234 231 229 231 235 237 238 237 238 243 233 228 234 232 92 84 81 77 77 81 85 93 94 96 95 95 100 107 112 117 122 125 129 133 138 138 141 144 147 148
245 241 238 233 231 232 231 234 238 240 237 234 228 233 231 229 227 230 256 99 102 104 97 99 98 99 102 100 97 99 102 109 117 122 126 129 133 139 141 142 142 142 146
242 241 238 236 233 230 230 229 232 235 237 233 224 222 224 227 226 218 213 215 210 162 148 142 123 112 110 107 105 106 107 111 120 128 134 139 145 151 151 151 152 152 154
243 239 235 236 234 231 230 228 227 228 229 227 224 223 225 224 227 224 222 217 210 212 208 187 176 169 159 153 143 134 126 127 135 141 149 153 156 161 162 165 166 166 165
241 237 234 233 233 230 228 228 225 223 223 220 220 220 219 217 217 224 227 225 223 221 217 212 209 203 199 192 186 186 176 166 167 170 171 174 174 174 178 179 179 180 181
235 234 232 233 234 231 228 226 224 220 220 217 216 216 218 218 218 221 224 222 222 220 220 222 223 220 217 217 217 212 201 191 185 187 190 186 189 191 192 191 192 188 188
233 231 231 233 233 230 228 225 222 219 219 216 215 215 215 219 221 228 232 231 230 231 232 230 227 223 221 219 222 223 222 217 216 213 210 209 207 203 199 199 198 195 194
Wind_Speed_850mb
48 49 52 56 59 61 65 67 69 70 70 70 70 72 70 71 71 74 76 76 81 84 84 84 91 81 86 90 88 78 77 66 75 80 77 78 67 69 54 68 82 87 91
45 46 49 53 56 60 63 64 66 67 67 69 72 76 77 78 77 80 82 80 81 81 81 83 82 92 80 84 81 81 68 78 71 62 73 66 51 53 45 60 77 90 98
41 43 45 49 54 58 60 63 62 65 67 72 76 77 77 78 78 80 80 79 78 75 76 74 79 75 85 81 82 79 75 72 57 56 76 78 61 51 46 57 78 88 93
36 39 42 46 51 55 57 57 58 62 70 74 76 79 83 85 85 79 80 86 88 81 75 71 68 76 73 79 79 77 73 68 80 52 51 64 67 60 62 86 88 99 109
33 35 37 41 45 47 50 53 57 63 69 73 81 88 93 93 87 85 84 80 74 72 68 73 72 68 78 70 77 68 67 67 72 60 52 65 74 87 97 88 106 116 114
30 32 34 36 40 44 50 52 56 62 67 74 84 92 98 95 77 85 77 57 48 48 54 60 60 69 67 75 78 75 74 52 57 58 68 70 84 99 106 108 122 135 113
26 28 30 31 34 41 46 49 55 60 64 74 83 91 99 97 81 90 67 45 44 44 43 47 44 55 61 68 71 72 70 51 52 72 55 47 86 102 116 118 123 111 126
21 23 25 26 29 37 42 46 48 51 62 74 82 91 98 96 84 92 66 52 54 55 53 34 32 43 53 61 64 61 62 60 28 42 46 36 68 111 120 126 122 112 115
18 19 20 20 23 30 35 37 39 47 54 61 72 85 99 101 87 86 76 69 75 80 71 8 26 34 43 47 48 45 42 39 41 29 31 46 84 103 113 127 110 128 112
19 16 16 16 18 23 25 27 36 40 48 60 70 82 90 98 103 83 79 75 86 103 106 34 30 30 37 43 43 43 43 48 48 40 42 57 71 91 89 99 120 133 128
21 16 14 14 13 16 17 18 29 32 39 52 62 73 84 92 98 91 75 71 79 97 113 94 45 27 28 29 34 37 37 48 56 52 69 74 81 78 74 89 95 112 107
25 20 15 15 9 10 10 13 21 26 37 50 59 69 78 85 89 90 88 69 62 73 86 91 85 66 60 48 53 59 67 64 69 79 86 89 92 88 82 87 88 88 69
32 29 20 18 11 10 8 9 15 21 32 45 56 65 72 78 83 81 79 87 69 65 57 63 70 57 67 84 84 90 88 85 90 95 96 92 84 81 80 74 67 68 65
42 37 28 22 17 13 9 6 10 16 27 38 48 56 63 71 78 78 75 73 80 85 72 60 51 48 56 71 76 69 68 75 82 94 97 96 89 88 88 80 77 63 66
50 46 39 28 23 18 13 11 6 12 22 30 38 45 52 61 66 64 67 68 70 72 79 84 83 76 68 63 64 66 75 83 89 90 89 83 79 77 76 65 57 66 75
60 56 49 38 31 25 19 17 13 5 11 17 23 29 35 41 46 53 56 59 61 65 74 78 78 80 85 83 82 82 81 81 80 78 76 74 75 72 66 62 66 70 68
66 64 56 48 40 34 29 23 21 12 6 5 10 15 22 28 32 41 46 47 54 58 71 70 70 67 66 66 67 68 71 68 66 67 68 66 63 61 60 63 62 58 62
65 69 63 56 48 41 38 31 28 23 14 10 5 3 9 14 20 27 32 30 42 50 58 61 60 60 59 58 57 57 56 53 49 51 52 54 55 58 60 59 57 58 60
62 72 69 63 57 49 43 40 35 32 26 21 15 10 4 3 8 14 18 21 30 38 41 47 49 49 48 49 51 50 48 47 46 46 46 45 46 47 51 51 50 48 48
64 70 72 68 63 59 52 46 41 37 33 28 23 20 15 9 2 5 9 14 18 24 28 32 37 40 41 41 40 38 39 39 40 41 44 44 45 43 47 49 47 48 45
67 71 74 74 71 64 59 51 44 39 34 30 26 27 24 19 13 6 1 5 10 12 14 18 22 25 29 31 31 31 30 32 32 32 34 36 37 38 37 37 38 36 35
72 72 76 81 76 70 65 58 48 41 37 33 28 29 28 25 21 16 12 8 4 4 9 10 10 13 16 19 20 21 22 21 22 23 25 29 32 33 34 34 35 34 32
72 73 76 82 76 71 68 65 55 45 40 35 33 32 28 25 24 22 17 13 11 10 9 11 14 14 13 10 12 16 13 14 17 18 20 23 26 28 28 29 30 31 30
67 71 78 78 76 72 73 71 62 49 43 39 38 35 32 28 26 24 22 18 15 15 15 16 15 16 16 16 16 16 16 17 16 18 18 19 24 28 29 30 30 30 28
62 65 70 72 72 68 71 71 67 59 51 45 42 38 33 31 29 27 24 21 20 18 16 16 19 20 22 21 20 18 18 17 19 21 23 25 25 28 31 32 33 33 29
55 59 61 64 61 59 64 66 67 64 57 51 46 42 39 36 32 31 29 27 24 21 21 21 21 23 26 29 29 27 24 23 21 20 21 23 25 29 31 30 30 31 32
Wind_Direction_850mb
314 320 324 329 331 334 335 336 337 336 334 329 329 327 323 318 319 310 301 295 288 282 273 265 254 257 249 249 247 246 242 244 244 254 266 266 257 253 255 243 220 211 208
313 321 327 332 334 337 339 342 341 340 338 339 338 335 331 326 318 306 306 301 292 286 277 271 262 247 251 246 242 239 239 241 244 250 252 257 253 243 248 222 213 206 207
313 321 330 335 338 342 346 347 345 344 346 347 345 338 335 332 324 321 315 307 298 288 280 271 261 254 240 245 241 241 240 235 235 242 248 249 235 241 219 204 201 200 189
313 324 333 339 342 348 353 351 352 352 354 356 352 349 347 339 331 324 322 313 298 292 282 274 264 250 244 244 237 235 240 237 235 248 244 241 224 200 199 179 154 161 150
313 325 335 341 347 354 357 359 1 2 5 5 360 357 351 344 337 336 326 314 302 294 284 276 269 252 237 231 232 229 236 234 235 237 238 213 185 172 168 156 159 146 142
311 325 336 343 352 2 1 4 7 9 10 8 3 2 355 348 345 338 330 319 323 302 291 283 261 251 235 228 230 231 229 224 223 221 203 197 188 175 170 167 159 152 133
308 324 333 341 358 6 6 10 14 12 13 14 10 7 3 360 357 347 340 342 349 345 320 285 267 234 229 220 220 223 228 231 224 228 223 223 195 177 174 168 157 152 154
303 319 327 340 0 12 10 17 24 21 20 20 17 13 9 9 7 358 357 6 10 7 356 295 247 215 213 213 214 217 223 223 221 214 236 238 226 187 182 176 168 159 146
293 307 319 333 4 16 16 28 31 19 22 25 21 16 15 15 13 6 9 25 26 25 17 337 166 187 196 188 198 206 211 207 228 238 232 218 193 181 175 174 164 159 141
281 295 310 328 5 20 18 29 25 16 25 25 23 19 15 18 19 11 15 30 38 38 33 79 122 144 163 179 186 193 199 209 219 208 191 177 181 175 175 174 169 159 152
271 277 296 312 355 11 4 11 15 10 22 26 22 26 27 21 23 22 22 34 45 52 55 61 71 117 133 152 176 191 197 184 173 187 166 164 166 164 162 163 161 165 160
261 261 272 292 319 340 340 346 359 4 15 26 26 31 33 33 28 26 31 39 49 59 69 77 80 95 115 142 142 156 166 176 171 163 160 157 161 163 164 165 165 167 164
256 254 255 274 275 297 310 328 356 7 20 28 30 31 33 37 37 33 35 41 52 62 74 92 108 122 129 122 129 140 147 148 149 147 145 145 151 154 156 159 162 167 164
252 247 243 256 256 267 278 277 350 13 29 30 33 35 36 37 40 38 37 46 51 61 69 75 84 98 112 123 127 134 137 140 141 136 134 136 142 148 153 156 154 151 149
247 244 240 242 245 248 253 237 275 15 31 34 33 34 37 41 42 39 40 45 56 62 71 77 81 87 93 100 108 116 122 128 131 133 133 131 130 132 129 131 136 146 144
245 241 240 236 238 237 238 234 234 333 15 37 36 38 42 47 48 49 49 55 56 60 66 69 76 84 91 98 104 110 114 115 117 120 123 126 128 128 128 135 143 150 147
244 240 237 232 233 234 234 229 230 254 286 2 35 39 44 49 51 56 55 54 62 65 67 72 76 78 86 94 100 106 111 114 120 124 126 129 133 133 135 136 141 142 138
243 239 237 235 232 233 235 232 232 237 249 268 265 20 53 52 59 58 58 57 65 65 74 76 77 83 86 87 91 94 98 102 108 113 119 124 128 130 130 133 136 139 139
241 238 235 233 231 232 234 237 236 237 241 250 249 237 242 88 70 73 73 61 63 75 78 83 85 86 86 92 99 103 106 111 115 119 119 121 125 133 135 136 138 141 143
244 240 238 234 231 229 231 235 237 238 237 238 243 233 228 234 232 92 84 81 77 77 81 85 93 94 96 95 95 100 107 112 117 122 125 129 133 138 138 141 144 147 148
245 241 238 233 231 232 231 234 238 240 237 234 228 233 231 229 227 230 256 99 102 104 97 99 98 99 102 100 97 99 102 109 117 122 126 129 133 139 141 142 142 142 146
242 241 238 236 233 230 230 229 232 235 237 233 224 222 224 227 226 218 213 215 210 162 148 142 123 112 110 107 105 106 107 111 120 128 134 139 145 151 151 151 152 152 154
243 239 235 236 234 231 230 228 227 228 229 227 224 223 225 224 227 224 222 217 210 212 208 187 176 169 159 153 143 134 126 127 135 141 149 153 156 161 162 165 166 166 165
241 237 234 233 233 230 228 228 225 223 223 220 220 220 219 217 217 224 227 225 223 221 217 212 209 203 199 192 186 186 176 166 167 170 171 174 174 174 178 179 179 180 181
235 234 232 233 234 231 228 226 224 220 220 217 216 216 218 218 218 221 224 222 222 220 220 222 223 220 217 217 217 212 201 191 185 187 190 186 189 191 192 191 192 188 188
233 231 231 233 233 230 228 225 222 219 219 216 215 215 215 219 221 228 232 231 230 231 232 230 227 223 221 219 222 223 222 217 216 213 210 209 207 203 199 199 198 195 194